Regional Weather Roundup
Issued by NWS

Home | Current Version | Previous Version | Graphics & Text | Print | Product List | Glossary On
Versions: 1 2 3 4 5 6 7 8 9 10 11 12 13 14 15 16 17 18 19 20 21 22 23 24 25 26 27 28 29 30 31 32 33 34 35 36 37 38 39 40 41 42 43 44 45 46
000
ASUS45 KTFX 080010
RWRMT
MONTANA REGIONAL WEATHER ROUNDUP
NATIONAL WEATHER SERVICE GREAT FALLS MT
500 PM MST SUN FEB 07 2016

NOTE: "FAIR" INDICATES FEW OR NO CLOUDS BELOW 12000 FEET WITH NO
SIGNIFICANT WEATHER AND/OR OBSTRUCTIONS TO VISIBILITY.

MTZ001>007-043-080100-
WEST OF THE DIVIDE

CITY           SKY/WX    TMP DP  RH WIND       PRES   REMARKS
KALISPELL      CLOUDY    36  26  67 W3        30.58R
MISSOULA       MOCLDY    37  23  56 N3        30.59R
BUTTE          CLEAR     32  18  56 NW7       30.50R WCI  26
MULLAN PASS    CLOUDY    29  22  75 W3        30.53R
ANACONDA         N/A     36  14  41 N3        30.52R
DEER LODGE       N/A     34  19  55 W3        30.54R
HAMILTON         N/A     43  25  49 N7        30.56R
LIBBY            N/A     39  23  52 CALM      30.60S
PLAINS           N/A     44  27  51 CALM      30.55R
$$

MTZ008-052>055-080100-
SOUTHWEST MONTANA

CITY           SKY/WX    TMP DP  RH WIND       PRES   REMARKS
BOZEMAN        CLEAR     36  15  42 SE3       30.48R
DILLON         CLEAR     38  18  44 CALM      30.48R
ENNIS          CLEAR     41  10  28 S6        30.53R
TWIN BRIDGES     N/A     35  20  55 SE5       30.42R
$$

MTZ009-010-012-014-046-048-049-054-080100-
EAST SLOPES AND CENTRAL MONTANA

CITY           SKY/WX    TMP DP  RH WIND       PRES   REMARKS
CUT BANK       CLOUDY    40  12  32 W9        30.40R
GREAT FALLS    CLOUDY    41  15  35 NW6       30.41S
MALMSTROM AFB  CLOUDY    42   9  25 NW5       30.42S
HELENA         CLOUDY    41  15  35 W7        30.47R
CHOTEAU          N/A     41   7  24 E5        30.42S
CONRAD           N/A     42  15  33 W3        30.39S
$$

MTZ011-013-016-021-045-047-050-051-080100-
NORTH CENTRAL MONTANA

CITY           SKY/WX    TMP DP  RH WIND       PRES   REMARKS
HAVRE          CLEAR     38  12  34 NW6       30.44S
LEWISTOWN      CLEAR     32  11  41 N3        30.42R
N BAR RANCH      N/A     32   7  34 NW16G22   30.41S WCI  21
CHINOOK          N/A     37  12  35 W9        30.45R WCI  31
$$

MTZ017>020-022>027-061-062-080100-
NORTHEAST MONTANA

CITY           SKY/WX    TMP DP  RH WIND       PRES   REMARKS
GLASGOW        CLEAR     34  20  56 NW16      30.36R WCI  24
JORDAN           N/A     34  18  52 NW20      30.39R WCI  23
SIDNEY         CLEAR     36  16  44 NW18G30   30.28R WCI  25
WOLF POINT     CLEAR     37  19  48 NW24G32   30.33R WCI  26
MALTA            N/A    N/A N/A N/A MISG      30.36
PLENTYWOOD       N/A     30  19  64 NW22G31   30.25R WCI  17
POPLAR           N/A     34  21  60 NW10      30.32R WCI  26
SCOBEY           N/A     32  12  43 NW22      30.26R WCI  19
$$

MTZ028>42-056>058-080100-
SOUTHCENTRAL AND SOUTHEAST MONTANA

CITY           SKY/WX    TMP DP  RH WIND       PRES   REMARKS
BAKER          PTCLDY    33  12  41 NW26G36   30.28R WCI  20
BILLINGS       MOCLDY    38   9  30 N7        30.42R
LIVINGSTON     CLEAR     39  12  33 NW12G22   30.42R WCI  32
MILES CITY     CLEAR     36  10  34 NW21G32   30.37R WCI  25
EKALAKA          N/A     31   5  33 NW21      30.24R WCI  19
FORSYTH          N/A     36  12  38 NW10G22   30.42R WCI  28
LAUREL           N/A     40   8  26 N1        30.37R
ROUNDUP          N/A     37   6  27 NW1       30.31R
$$

REGIONAL REPORTS...DAKOTAS

CITY           SKY/WX    TMP DP  RH WIND       PRES   REMARKS
WILLISTON      CLEAR     34  20  56 NW20G36   30.23R WCI  23
MINOT          CLOUDY    33  18  53 NW25G36   30.09R WCI  20
DICKINSON      PTCLDY    30  14  51 NW28G45   30.16R WCI  15
BEACH          CLOUDY    32  14  47 NW37G44   30.28R WCI  16
CROSBY           N/A     32  19  59 NW30G41   30.22R WCI  18
TIOGA            N/A     30  23  74 NW25      30.21R WCI  16
WATFORD CITY     N/A     32  16  51 NW22G35   30.21R WCI  19
BISMARCK       PTCLDY    36  17  46 NW33G45   30.07R WCI  22
GRAND FORKS    SNOW      16  10  77 N31G41    29.95R VSB 1/4 WCI  -4
FARGO          LGT SNOW  19  13  77 N30G41    29.93R WCI   0
BUFFALO SD       N/A     34  12  40 NW33G49   30.16R WCI  20
RAPID CITY     CLEAR     35   6  29 NW30G58   30.20R WCI  22
$$

REGIONAL REPORTS...WYOMING/IDAHO/WASHINGTON

CITY           SKY/WX    TMP DP  RH WIND       PRES   REMARKS
GILLETTE       CLOUDY    30  10  43 NW23G30   30.35R WCI  17
SHERIDAN       CLOUDY    35  15  44 N16       30.40S WCI  25
BUFFALO WY     CLOUDY    30  14  51 N15G25    30.36R WCI  19
CODY           CLEAR     36  14  41 NE6       30.40R WCI  31
YELLOWSTONE LA   N/A     27  10  49 W8        30.48R WCI  19
IDAHO FALLS    CLOUDY    23  20  88 N8        30.61R WCI  14
SALMON         CLOUDY    27  16  63 CALM      30.61R
BOISE          CLEAR     47  36  65 NW10      30.61R
SPOKANE        MOCLDY    40  31  70 NE8       30.60R
$$

REGIONAL REPORTS...ALBERTA

CITY           SKY/WX    TMP DP  RH WIND       PRES   REMARKS
EDMONTON       PTCLDY    32  18  55 W6        30.36R WCI  26
CALGARY        PTCLDY    37   7  28 SE7       30.34S
LETHBRIDGE     MOCLDY    39  10  30 W15       30.38F WCI  31
MEDICINE HAT   PTCLDY    37  12  35 NW6       30.44R
MILK RIVER       N/A     34  12  40 N3          N/A
ONEFOUR          N/A     34  12  40 N6          N/A  WCI  29
$$

REGIONAL REPORTS...SASKATCHEWAN

CITY           SKY/WX    TMP DP  RH WIND       PRES   REMARKS
SWIFT CURRENT  CLEAR     30  18  59 NW16G22   30.33R WCI  19
REGINA         PTCLDY    28  19  69 NW20G26   30.25R WCI  15
SASKATOON      PTCLDY    27  19  74 W14       30.29R WCI  15
CYPRESS HILLS    N/A     28   7  40 NW9G18      N/A  WCI  20
VAL MARIE        N/A     34  10  37 NW18        N/A  WCI  23
ROCKGLEN         N/A     28  18  64 NW17G25     N/A  WCI  16
$$



USA.gov is the U.S. government's official web portal to all federal, state and local government web resources and services.